Barksdale AFB, LA

3:09 AM CST on November 23, 2017 (GMT -0600)
Barksdale Air Force Base

Weather History for KBAD - December, 2012

Change the Weather History Date:

Sunday, December 23, 2012

  Actual Average Record
Temperature  
Mean Temperature 61 °F -  
Max Temperature 69 °F 54 °F 79 °F (2015)
Min Temperature 53 °F 34 °F 24 °F (1998)
Degree Days  
Heating Degree Days 4    
Growing Degree Days 11 (Base 50)    
Moisture  
Dew Point 54 °F    
Average Humidity 75    
Maximum Humidity 91    
Minimum Humidity 64    
Precipitation  
Precipitation 0.00 in - - ()
Sea Level Pressure  
Sea Level Pressure 29.95 in    
Wind  
Wind Speed 10 mph (South)    
Max Wind Speed 15 mph    
Max Gust Speed 24 mph    
Visibility 10 miles    
Events Rain    
Averages and records for this station are not official NWS values.
T = Trace of Precipitation, MM = Missing Value Source: NWS Daily Summary

Daily Weather History Graph

Daily Weather History Graph

Search for Another Location

Airport or City:

Trip Planner

Search our weather history database for the weather conditions in past years. The results will help you decide how hot, cold, wet, or windy it might be!

Date:

Astronomy

Dec. 23, 2012 Rise Set
Actual Time 7:13 AM CST 5:14 PM CST
Civil Twilight 6:46 AM CST 5:41 PM CST
Nautical Twilight 6:15 AM CST 6:12 PM CST
Astronomical Twilight 5:45 AM CST 6:42 PM CST
Moon 1:59 PM CST 3:03 AM CST
Length of Visible Light 10h 55m
Length of Day
10h 01m
Waxing Gibbous, 82% of the Moon is Illuminated
Dec 23
Waxing Gibbous
Dec 28
Full
Jan 4
Last Quarter
Jan 11
New
Jan 18
First Quarter

Hourly Weather History & Observations

Time (CST) Temp. Dew Point Humidity Pressure Visibility Wind Dir Wind Speed Gust Speed Precip Events Conditions
12:55 AM 53.6 °F 43.9 °F 70% 30.12 in 10.0 mi SSE 9.2 mph - N/A   Overcast
1:55 AM 53.6 °F 44.4 °F 71% 30.10 in 10.0 mi SSE 8.1 mph - N/A   Overcast
2:55 AM 53.6 °F 45.0 °F 73% 30.08 in 10.0 mi SSE 8.1 mph - N/A   Overcast
3:55 AM 55.0 °F 46.8 °F 74% 30.06 in 10.0 mi SSE 8.1 mph - N/A   Mostly Cloudy
4:55 AM 55.9 °F 47.5 °F 73% 30.06 in 10.0 mi SSE 8.1 mph - N/A   Overcast
5:55 AM 56.7 °F 48.6 °F 74% 30.04 in 10.0 mi SSE 11.5 mph - N/A   Mostly Cloudy
6:55 AM 56.7 °F 48.9 °F 75% 30.05 in 10.0 mi SSE 9.2 mph - N/A   Overcast
7:55 AM 56.5 °F 49.1 °F 76% 30.04 in 10.0 mi South 10.4 mph - N/A   Mostly Cloudy
8:13 AM 57.2 °F 50.0 °F 77% 30.03 in 10.0 mi SSE 10.4 mph - N/A   Light Drizzle
8:22 AM 57.2 °F 50.0 °F 77% 30.04 in 10.0 mi South 9.2 mph - N/A   Mostly Cloudy
8:42 AM 57.2 °F 50.0 °F 77% 30.03 in 10.0 mi South 10.4 mph - N/A Rain Light Rain
8:51 AM 57.2 °F 51.8 °F 82% 30.03 in 10.0 mi South 11.5 mph - N/A   Mostly Cloudy
8:55 AM 57.9 °F 50.9 °F 77% 30.03 in 10.0 mi South 12.7 mph - 0.00 in   Scattered Clouds
9:01 AM 59.0 °F 51.8 °F 77% 30.02 in 10.0 mi South 12.7 mph - N/A Rain Light Rain
9:16 AM 57.2 °F 51.8 °F 82% 30.03 in 10.0 mi South 12.7 mph - N/A   Mostly Cloudy
9:55 AM 61.0 °F 52.9 °F 75% 30.02 in 10.0 mi South 12.7 mph - 0.00 in   Scattered Clouds
10:22 AM 62.6 °F 53.6 °F 72% 30.02 in 10.0 mi South 12.7 mph - N/A   Mostly Cloudy
10:55 AM 65.8 °F 55.8 °F 70% 30.00 in 10.0 mi South 15.0 mph - N/A   Overcast
11:55 AM 68.4 °F 57.2 °F 67% 29.96 in 10.0 mi SSW 12.7 mph - N/A   Mostly Cloudy
12:09 PM 68.0 °F 57.2 °F 68% 29.94 in 10.0 mi SSW 13.8 mph 20.7 mph N/A   Mostly Cloudy
12:55 PM 69.1 °F 57.4 °F 66% 29.90 in 10.0 mi SSW 15.0 mph 24.2 mph N/A   Scattered Clouds
1:36 PM 69.8 °F 57.2 °F 64% 29.88 in 10.0 mi South 13.8 mph 19.6 mph N/A   Mostly Cloudy
1:37 PM 69.8 °F 57.2 °F 64% 29.88 in 10.0 mi South 11.5 mph 19.6 mph N/A   Mostly Cloudy
1:39 PM 69.8 °F 57.2 °F 64% 29.88 in 10.0 mi South 11.5 mph 19.6 mph N/A   Mostly Cloudy
1:55 PM 68.9 °F 57.7 °F 68% 29.87 in 10.0 mi SSW 12.7 mph - N/A   Overcast
2:07 PM 69.8 °F 57.2 °F 64% 29.86 in 10.0 mi South 11.5 mph - N/A   Mostly Cloudy
2:55 PM 69.8 °F 58.6 °F 68% 29.86 in 10.0 mi South 12.7 mph - N/A   Partly Cloudy
3:55 PM 69.8 °F 58.6 °F 68% 29.84 in 10.0 mi South 10.4 mph - N/A   Clear
4:55 PM 67.5 °F 58.6 °F 73% 29.83 in 10.0 mi SSE 9.2 mph - N/A   Scattered Clouds
5:55 PM 63.3 °F 58.1 °F 83% 29.83 in 10.0 mi South 6.9 mph - N/A   Partly Cloudy
6:55 PM 65.5 °F 56.8 °F 74% 29.83 in 10.0 mi SSW 6.9 mph - N/A   Clear
7:55 PM 65.3 °F 56.1 °F 72% 29.86 in 10.0 mi SSW 6.9 mph - N/A   Clear
8:55 PM 60.6 °F 56.1 °F 85% 29.85 in 10.0 mi SSE 11.5 mph - N/A   Partly Cloudy
9:55 PM 57.6 °F 55.0 °F 91% 29.85 in 10.0 mi South 5.8 mph - N/A   Clear
10:45 PM 62.6 °F 57.2 °F 82% 29.87 in 10.0 mi WSW 3.5 mph - N/A   Overcast
10:54 PM 62.6 °F 57.2 °F 82% 29.87 in 10.0 mi SW 3.5 mph - N/A   Overcast
10:55 PM 62.2 °F 57.9 °F 86% 29.87 in 10.0 mi SW 3.5 mph - N/A   Overcast
10:57 PM 62.6 °F 57.2 °F 82% 29.87 in 10.0 mi SW 4.6 mph - N/A   Overcast
10:58 PM 62.6 °F 57.2 °F 82% 29.87 in 10.0 mi SW 4.6 mph - N/A   Overcast
11:23 PM 62.6 °F 57.2 °F 82% 29.87 in 10.0 mi West 9.2 mph - N/A   Mostly Cloudy
11:55 PM 61.0 °F 52.9 °F 75% 29.87 in 10.0 mi West 6.9 mph - N/A   Clear